Temp
61 61 61 61 61 61 60 60 59 59 59 59 60 60 60 60 60 51 46 56 57 65 65 59 57 57 56 54 55 51 47 40 43 43 47 50 51 51 52 51 52 54 51 51 52
61 61 61 61 60 60 60 59 59 59 59 59 59 59 59 59 51 45 57 64 65 66 58 57 55 55 50 51 52 48 44 45 48 49 48 50 51 53 50 51 50 50 50 50 50
61 61 61 61 60 60 59 59 59 58 59 59 58 59 59 57 43 48 64 65 66 65 58 58 56 55 48 50 51 48 46 48 49 52 52 51 47 52 50 49 51 53 51 48 47
60 61 60 60 60 59 59 59 58 58 58 59 59 59 59 49 39 54 64 65 66 58 56 55 53 49 46 45 50 43 48 51 51 53 51 49 50 48 50 54 54 55 52 48 48
58 59 60 59 59 59 59 59 58 58 58 58 58 58 53 43 42 56 63 62 56 56 53 52 49 48 44 46 48 43 46 50 53 52 49 49 48 48 48 52 50 50 50 48 49
57 57 59 59 59 59 59 58 58 58 58 58 58 58 47 35 54 56 54 53 53 53 52 52 51 52 47 46 46 47 48 49 50 48 48 47 44 46 50 50 51 50 50 48 49
57 57 58 58 58 58 58 58 58 58 58 58 57 54 46 42 51 52 52 52 52 52 50 53 53 50 48 45 49 46 43 44 44 45 45 45 41 41 51 47 49 48 47 46 46
56 56 56 58 58 58 58 58 58 58 58 58 57 51 40 52 49 49 52 51 53 53 53 53 55 50 46 48 45 40 38 36 43 43 45 48 42 46 50 45 46 46 45 44 45
56 55 56 57 57 57 57 58 57 57 57 57 51 46 37 53 46 50 52 50 50 50 52 58 52 45 43 37 33 33 30 32 39 42 41 41 39 47 43 42 44 42 43 43 43
56 56 56 56 57 57 56 56 56 55 52 54 52 37 42 43 46 48 47 51 49 48 48 47 42 37 33 33 29 32 30 33 34 40 37 34 35 42 41 40 42 42 42 41 42
55 56 56 56 56 57 51 47 42 41 40 37 38 38 42 47 49 47 49 48 47 44 37 40 37 32 38 39 39 35 33 32 32 40 38 34 37 38 44 38 38 40 43 45 46
55 56 56 55 56 54 49 42 43 42 33 40 41 42 46 45 41 46 50 42 40 34 39 36 33 41 41 40 39 36 35 34 35 38 37 33 35 37 40 42 43 49 48 47 46
54 55 55 55 53 49 44 44 48 45 29 34 39 39 41 44 39 42 47 43 37 35 36 36 36 41 40 36 36 36 36 36 34 34 33 29 36 33 38 38 43 44 47 45 43
53 54 56 54 48 45 43 47 48 43 19 30 34 38 41 42 34 47 49 44 39 35 36 36 40 37 35 36 38 33 38 36 35 33 29 30 27 29 37 41 40 43 40 41 40
52 54 53 52 43 42 44 47 46 38 12 34 34 44 41 37 36 38 45 42 34 36 36 32 34 33 35 35 39 36 36 35 35 33 30 25 23 27 30 36 42 41 40 38 39
52 50 52 47 44 42 45 46 42 20 8 24 33 32 32 35 35 39 38 40 36 35 35 32 38 37 36 35 39 37 35 34 31 29 18 27 27 33 32 39 36 39 40 39 37
51 49 45 45 38 43 44 39 22 14 27 22 25 31 30 30 32 34 32 29 29 25 26 30 32 35 36 33 35 33 31 21 18 17 19 23 26 37 37 38 38 40 38 35 35
50 47 43 41 41 44 40 29 15 17 17 31 30 30 27 31 31 31 30 28 31 28 27 26 22 31 35 34 32 31 32 22 15 15 21 26 22 29 34 35 38 39 37 34 36
48 35 37 39 41 41 33 21 21 22 28 26 28 24 21 29 29 27 26 25 31 32 25 24 27 31 32 33 33 30 26 34 22 17 18 25 27 33 34 33 32 35 35 34 35
33 33 33 40 41 38 28 23 22 30 30 28 21 26 22 22 24 25 25 29 30 33 32 31 22 28 30 32 31 29 32 24 22 13 12 23 20 28 29 32 33 33 34 35 34
29 21 30 40 39 31 21 13 20 30 31 27 26 22 24 22 23 21 25 29 29 31 32 26 26 22 28 24 29 26 26 26 25 23 17 12 22 29 34 36 35 34 36 38 37
22 12 30 38 19 17 18 19 31 27 30 29 29 27 25 26 23 22 22 28 33 33 28 30 25 19 21 24 26 24 27 31 20 17 19 19 23 30 31 34 35 34 37 37 35
13 17 31 36 10 9 15 21 27 27 27 26 26 29 29 25 22 25 28 31 32 31 26 28 22 15 19 21 23 18 26 28 26 24 18 20 25 32 32 33 34 35 37 36 34
19 11 14 28 27 20 10 15 16 29 28 29 26 27 24 24 28 22 27 30 31 30 34 31 24 19 16 20 21 18 19 27 24 20 23 24 25 29 32 34 35 37 37 34 31
25 17 15 5 8 13 20 21 20 17 22 29 25 24 21 16 17 22 24 26 29 30 29 27 21 15 18 23 22 23 21 21 23 27 22 29 31 32 33 34 36 36 32 32 31
24 19 18 8 12 18 16 12 18 19 17 16 22 22 20 17 17 18 19 22 22 25 24 25 19 17 13 24 25 21 22 22 25 27 29 30 27 34 35 37 35 35 33 32 31
28 25 24 22 11 13 11 17 21 21 21 26 22 20 14 22 23 23 25 25 25 22 21 21 20 17 10 21 21 15 20 20 22 23 29 23 32 36 34 33 34 35 34 32 29
MSLP
1020.35 1020.37 1020.34 1020.11 1019.74 1019.28 1019.21 1018.98 1018.85 1018.54 1018.36 1018.03 1017.72 1017.19 1016.79 1016.24 1015.98 1016.04 1014.90 1012.18 1012.24 1011.89 1011.96 1012.05 1012.39 1012.40 1012.45 1012.67 1012.74 1013.14 1013.44 1012.98 1012.32 1012.29 1011.37 1010.82 1010.81 1010.64 1010.53 1010.69 1010.91 1011.02 1011.36 1011.86 1012.23
1020.03 1019.76 1019.75 1019.62 1019.44 1019.26 1019.11 1018.84 1018.60 1018.49 1018.10 1017.79 1017.54 1017.20 1016.74 1016.27 1016.07 1014.90 1011.61 1011.23 1011.00 1011.56 1012.09 1012.00 1012.27 1012.50 1012.59 1012.55 1012.50 1012.86 1012.68 1011.72 1011.38 1011.27 1011.05 1010.73 1010.67 1010.46 1010.82 1010.75 1010.91 1011.07 1011.52 1012.12 1012.59
1019.78 1019.41 1019.41 1019.49 1019.30 1019.12 1019.08 1018.98 1018.67 1018.25 1017.91 1017.67 1017.48 1017.17 1016.81 1016.29 1015.80 1012.24 1010.54 1010.29 1010.56 1010.98 1011.55 1011.88 1011.98 1012.35 1012.60 1012.33 1012.16 1012.02 1011.28 1011.18 1010.81 1010.55 1010.64 1010.66 1010.73 1010.53 1010.63 1010.70 1010.35 1010.47 1011.19 1012.10 1012.86
1019.58 1019.08 1018.97 1019.16 1019.00 1018.93 1018.85 1018.62 1018.60 1018.37 1017.94 1017.56 1017.39 1016.99 1016.60 1016.48 1014.92 1011.34 1010.69 1010.00 1010.32 1011.17 1011.57 1011.76 1012.01 1012.37 1012.42 1012.09 1011.57 1011.59 1010.87 1010.79 1010.45 1010.40 1010.54 1010.71 1010.55 1010.67 1010.38 1009.47 1009.44 1009.92 1010.62 1011.78 1012.48
1019.58 1019.00 1018.73 1018.78 1018.82 1018.67 1018.52 1018.40 1018.27 1018.15 1017.92 1017.51 1017.24 1016.85 1016.50 1016.40 1014.01 1011.56 1011.38 1010.84 1010.65 1011.09 1011.51 1011.71 1011.90 1011.89 1011.79 1011.67 1011.49 1011.10 1010.71 1010.40 1010.27 1010.31 1010.41 1010.63 1010.51 1010.43 1009.78 1009.49 1009.72 1010.18 1010.73 1011.32 1011.68
1019.60 1018.76 1018.42 1018.41 1018.44 1018.31 1018.24 1018.06 1017.92 1017.59 1017.46 1017.24 1016.96 1016.81 1016.70 1015.48 1012.40 1012.00 1011.79 1011.59 1011.04 1011.05 1011.03 1011.31 1011.30 1011.27 1011.43 1011.15 1011.18 1010.32 1010.32 1010.25 1010.23 1010.33 1010.58 1010.83 1010.62 1010.60 1009.09 1009.49 1009.88 1010.28 1010.54 1010.88 1011.07
1019.65 1018.75 1018.33 1018.06 1017.92 1018.01 1017.68 1017.70 1017.55 1017.26 1017.04 1016.75 1016.83 1016.86 1016.14 1012.68 1011.91 1011.96 1012.19 1011.60 1011.18 1011.07 1010.95 1010.81 1010.96 1011.07 1011.04 1011.04 1010.37 1010.43 1010.49 1010.48 1010.46 1010.54 1010.76 1010.84 1010.52 1009.90 1008.99 1009.62 1010.04 1010.06 1010.20 1010.44 1010.55
1019.33 1019.01 1018.56 1017.48 1017.52 1017.41 1017.46 1017.14 1016.94 1016.83 1016.59 1016.34 1016.18 1016.73 1014.71 1012.06 1011.72 1011.90 1011.73 1011.32 1011.05 1011.20 1010.75 1010.52 1010.70 1011.20 1011.22 1010.82 1010.69 1010.82 1010.90 1010.86 1010.28 1010.61 1010.66 1010.66 1008.71 1008.65 1008.83 1009.55 1009.86 1009.92 1009.87 1010.02 1009.92
1019.15 1018.92 1018.40 1017.55 1017.32 1017.12 1017.06 1016.95 1016.42 1016.32 1016.05 1015.98 1016.31 1016.40 1013.81 1011.92 1011.44 1010.78 1010.94 1011.16 1010.96 1010.92 1010.74 1010.52 1010.88 1011.19 1011.28 1011.51 1011.76 1011.24 1010.82 1010.82 1010.86 1010.29 1010.58 1010.71 1008.88 1008.63 1008.88 1009.36 1009.54 1009.65 1009.51 1009.45 1009.17
1018.86 1018.19 1018.01 1017.66 1016.85 1016.63 1016.77 1016.59 1015.87 1015.56 1015.64 1015.77 1015.85 1016.82 1013.18 1011.58 1010.83 1010.81 1010.66 1010.72 1011.05 1011.15 1011.01 1010.83 1011.23 1011.44 1011.61 1011.58 1010.62 1011.35 1011.34 1010.80 1010.68 1010.48 1010.81 1010.80 1009.70 1009.12 1009.22 1009.20 1009.18 1009.01 1008.81 1008.81 1008.49
1018.74 1017.89 1017.34 1016.74 1016.72 1016.69 1017.20 1016.63 1016.51 1016.16 1015.87 1015.20 1014.58 1013.92 1012.40 1011.55 1010.99 1010.56 1010.54 1010.71 1010.96 1011.42 1011.15 1011.08 1011.38 1010.71 1010.04 1010.56 1010.50 1010.74 1010.81 1010.75 1010.30 1010.14 1010.63 1010.51 1009.83 1009.66 1008.96 1008.99 1008.83 1008.28 1008.07 1007.62 1007.23
1018.32 1017.73 1017.03 1016.97 1016.76 1016.82 1017.06 1017.26 1017.23 1017.65 1015.92 1014.45 1013.35 1012.73 1011.85 1011.87 1011.42 1010.81 1010.49 1010.96 1011.02 1011.40 1011.61 1011.64 1010.77 1009.02 1010.27 1010.68 1010.83 1010.64 1010.72 1010.34 1010.46 1010.24 1010.50 1010.24 1009.36 1009.22 1008.81 1007.98 1007.35 1006.91 1006.48 1006.17 1006.55
1018.65 1017.49 1016.75 1016.68 1016.91 1017.26 1017.43 1017.56 1017.60 1018.01 1017.34 1013.85 1012.67 1012.09 1011.60 1011.92 1011.22 1010.58 1010.91 1010.70 1011.10 1011.38 1011.26 1010.89 1009.55 1009.67 1010.05 1010.49 1010.84 1010.22 1010.28 1009.98 1010.29 1010.29 1010.45 1010.49 1008.96 1008.23 1007.28 1006.96 1006.18 1005.72 1005.35 1005.72 1006.16
1018.80 1017.65 1016.40 1016.83 1017.46 1017.75 1017.71 1017.76 1017.85 1018.12 1017.62 1013.83 1012.36 1011.56 1011.35 1011.09 1010.84 1010.10 1010.27 1011.19 1010.95 1010.96 1011.25 1011.06 1009.63 1009.84 1010.17 1009.85 1009.93 1009.92 1009.22 1010.12 1010.38 1010.75 1010.86 1010.68 1009.35 1007.65 1006.62 1006.02 1005.35 1004.82 1005.25 1005.44 1005.84
1019.40 1018.03 1018.06 1017.62 1017.75 1018.12 1018.46 1018.08 1018.04 1018.31 1017.38 1013.31 1012.12 1011.38 1011.16 1011.31 1011.31 1010.92 1010.95 1011.14 1011.16 1010.96 1011.00 1009.40 1009.54 1009.64 1009.54 1009.10 1009.61 1009.39 1009.39 1009.73 1010.21 1010.71 1011.26 1011.10 1011.03 1006.99 1006.47 1005.77 1004.80 1004.38 1004.80 1005.28 1006.00
1019.79 1019.35 1018.47 1018.38 1018.47 1019.28 1018.67 1018.28 1018.45 1019.12 1016.35 1013.58 1012.71 1012.00 1011.72 1011.46 1011.25 1011.36 1011.69 1011.60 1011.97 1011.53 1010.87 1010.26 1009.84 1009.24 1009.02 1009.27 1009.13 1009.60 1010.12 1010.48 1010.78 1011.24 1011.55 1009.80 1010.36 1005.86 1005.89 1004.88 1004.29 1004.45 1004.88 1005.61 1006.01
1020.03 1019.66 1019.15 1019.28 1019.74 1019.43 1019.06 1018.90 1019.43 1018.66 1015.54 1014.64 1013.62 1013.04 1012.73 1012.08 1011.48 1011.34 1011.70 1012.28 1011.79 1011.76 1011.05 1010.55 1009.89 1009.54 1009.25 1009.56 1009.74 1009.92 1010.25 1011.15 1011.68 1011.78 1010.83 1010.23 1009.99 1006.02 1004.85 1004.34 1004.36 1004.70 1005.39 1005.95 1006.00
1020.04 1019.77 1020.10 1020.33 1020.06 1019.39 1019.60 1019.51 1019.16 1017.41 1016.53 1015.08 1014.36 1013.71 1013.24 1012.35 1011.93 1011.76 1011.60 1011.69 1011.55 1011.41 1010.59 1010.50 1009.79 1009.41 1009.04 1009.26 1009.13 1009.44 1009.73 1010.27 1011.08 1011.60 1010.99 1010.47 1009.24 1005.54 1004.62 1004.45 1004.49 1005.02 1005.67 1006.15 1006.04
1020.20 1020.38 1020.42 1020.42 1020.14 1019.74 1020.00 1019.63 1018.07 1017.34 1016.65 1016.07 1014.87 1014.27 1013.78 1013.08 1012.88 1012.48 1011.93 1011.43 1010.72 1010.72 1010.99 1010.34 1009.76 1009.42 1009.43 1009.24 1009.56 1009.73 1009.69 1009.32 1011.20 1011.86 1011.47 1009.83 1007.76 1005.89 1004.93 1005.01 1005.35 1005.66 1006.02 1006.40 1006.50
1020.84 1020.58 1020.64 1020.37 1020.14 1019.97 1020.22 1019.23 1018.11 1017.14 1016.77 1016.48 1015.90 1015.27 1014.73 1013.98 1013.70 1013.00 1012.38 1011.24 1010.74 1010.32 1010.46 1010.09 1010.05 1010.25 1010.24 1010.07 1010.05 1009.85 1009.36 1010.22 1011.34 1011.56 1011.30 1009.20 1008.00 1005.87 1005.31 1005.54 1006.00 1006.27 1006.44 1006.53 1006.72
1021.35 1021.42 1020.74 1020.38 1020.27 1020.37 1020.48 1019.68 1018.36 1017.25 1017.04 1016.68 1015.77 1015.59 1015.00 1014.39 1013.89 1013.71 1012.60 1011.42 1011.07 1010.72 1010.72 1011.17 1011.02 1011.30 1011.06 1010.49 1010.06 1010.40 1010.18 1010.61 1010.86 1010.83 1010.09 1009.01 1006.42 1004.75 1004.50 1004.41 1005.15 1006.10 1006.33 1006.62 1007.04
1022.33 1022.62 1020.95 1020.57 1021.12 1020.84 1020.56 1019.45 1018.53 1017.54 1016.96 1016.68 1016.00 1015.52 1015.01 1014.45 1013.91 1013.53 1012.73 1011.72 1011.19 1010.97 1011.37 1011.53 1011.70 1011.51 1011.08 1010.89 1010.68 1010.42 1009.86 1009.89 1010.36 1010.03 1009.42 1008.58 1005.44 1004.79 1004.28 1004.43 1005.26 1006.13 1006.42 1006.87 1007.53
1022.88 1022.60 1021.02 1020.85 1021.56 1021.55 1020.89 1019.88 1018.89 1017.95 1017.28 1016.70 1016.12 1015.51 1015.05 1014.96 1014.35 1013.34 1012.62 1011.93 1011.64 1011.35 1011.69 1011.70 1011.80 1011.87 1011.55 1011.72 1011.37 1010.87 1010.15 1009.84 1009.57 1009.00 1008.37 1008.08 1005.40 1004.64 1004.37 1005.00 1005.72 1006.22 1006.73 1007.33 1008.12
1022.74 1022.99 1022.12 1021.29 1021.41 1021.75 1021.61 1020.47 1019.30 1018.09 1017.47 1017.04 1016.50 1016.03 1015.73 1015.02 1014.44 1013.88 1013.22 1012.71 1012.55 1012.30 1012.10 1012.00 1011.66 1011.68 1011.47 1011.40 1011.25 1011.18 1010.67 1009.91 1009.58 1009.00 1007.60 1006.40 1005.64 1005.28 1005.27 1005.36 1005.99 1006.36 1006.79 1007.68 1008.59
1021.71 1022.39 1021.97 1022.00 1021.95 1021.90 1021.69 1020.82 1019.94 1019.11 1018.16 1017.54 1017.03 1016.75 1016.83 1016.24 1015.36 1014.75 1014.48 1013.86 1013.37 1013.23 1012.56 1012.42 1012.03 1012.07 1011.47 1011.16 1011.15 1010.84 1010.67 1010.23 1009.31 1008.26 1007.35 1005.89 1005.66 1005.32 1005.27 1005.67 1006.16 1006.76 1007.44 1008.34 1008.98
1020.44 1021.71 1022.34 1021.54 1021.40 1021.75 1021.39 1020.59 1019.75 1019.05 1018.76 1017.78 1017.55 1017.56 1017.40 1017.38 1017.03 1016.14 1016.18 1015.60 1014.80 1013.98 1013.98 1013.40 1012.65 1012.37 1011.69 1010.82 1010.60 1010.46 1009.94 1009.75 1009.32 1008.60 1007.26 1006.96 1005.65 1005.69 1005.69 1006.23 1006.92 1007.30 1008.08 1008.90 1009.97
1018.55 1019.48 1020.02 1020.15 1020.96 1020.96 1020.15 1019.24 1018.59 1018.47 1018.09 1017.77 1017.78 1017.84 1017.52 1016.94 1016.84 1016.76 1016.61 1016.29 1015.65 1015.16 1014.52 1014.47 1013.37 1012.73 1011.85 1011.12 1010.69 1009.95 1008.71 1008.65 1008.46 1007.96 1007.09 1007.00 1005.73 1005.97 1006.36 1006.82 1007.24 1007.99 1008.72 1009.52 1010.52
Wind_Speed
11 12 13 13 13 15 15 16 16 17 17 17 18 18 18 19 20 6 11 12 12 15 3 4 2 4 3 4 4 4 3 9 9 8 6 2 5 2 0 2 3 5 3 2 7
12 12 13 14 14 14 15 15 16 16 17 18 18 18 17 18 13 13 16 16 19 8 6 8 6 5 3 5 5 6 6 11 7 7 6 3 6 6 4 5 5 4 2 4 9
17 15 14 13 13 14 14 16 16 16 17 17 17 18 16 11 6 11 5 17 16 12 4 5 3 6 5 4 6 7 12 4 4 7 5 4 3 6 6 8 7 10 6 8 6
21 19 15 14 13 14 14 15 16 17 17 17 17 17 17 4 8 5 8 5 11 7 4 5 5 7 6 8 6 5 8 7 5 6 5 5 4 5 8 9 4 8 5 9 13
23 18 15 13 15 14 14 15 15 16 17 17 17 15 5 6 14 8 6 2 6 7 7 6 5 5 7 6 4 5 4 6 10 6 5 4 8 8 10 9 3 2 6 11 12
22 23 16 14 14 13 14 15 16 16 16 16 17 15 2 15 6 8 4 1 3 5 7 7 7 6 5 6 9 4 8 7 6 6 6 7 5 5 9 6 10 8 10 10 14
22 23 16 15 13 13 13 16 18 18 17 15 14 9 12 26 4 6 6 4 3 4 5 4 2 4 3 3 7 3 4 4 6 4 7 5 9 13 10 6 9 11 11 10 12
21 21 22 14 13 13 14 16 17 19 19 17 10 6 13 5 4 6 5 6 4 5 3 3 6 4 3 4 3 3 2 8 5 10 6 10 21 11 11 7 12 12 11 9 10
20 19 20 19 18 13 14 17 18 20 16 13 5 4 15 8 3 8 9 5 2 2 3 1 6 5 1 2 3 4 5 6 7 10 5 8 10 7 4 8 11 9 10 9 9
23 19 18 19 20 13 12 15 20 12 3 1 4 2 7 6 3 2 4 4 2 3 1 4 3 3 2 6 16 9 5 6 7 5 3 5 13 10 6 5 9 9 9 9 10
25 20 17 15 16 17 4 5 6 3 1 9 9 8 5 4 2 4 3 5 4 2 8 3 5 15 20 15 6 2 5 6 3 5 5 9 14 9 14 6 10 11 13 13 16
26 19 15 12 11 9 3 1 4 1 12 15 24 20 12 4 5 5 5 6 6 6 4 3 15 18 5 9 11 5 8 14 4 3 5 3 15 10 11 12 10 17 17 17 9
27 26 13 11 9 3 1 2 3 2 6 9 5 6 6 12 12 5 8 4 5 8 11 13 6 8 11 6 13 17 19 14 4 2 3 3 17 6 9 8 11 12 14 9 9
28 28 6 14 2 1 2 1 1 1 4 9 3 2 2 3 4 5 8 4 5 12 7 10 5 4 5 14 15 20 12 5 5 4 7 3 11 6 6 9 6 9 6 9 8
26 19 13 12 4 2 5 4 2 3 6 3 3 3 3 1 3 6 5 4 6 5 6 11 7 7 16 13 13 11 6 11 8 8 3 5 3 6 1 6 11 5 3 3 5
20 19 14 5 2 4 6 4 2 5 10 7 4 5 3 2 2 3 4 5 1 3 4 4 5 5 7 3 11 7 5 5 4 4 2 8 8 10 7 10 2 3 1 3 5
22 13 7 3 3 8 4 1 1 4 6 8 4 4 3 4 3 5 4 3 6 5 15 2 6 3 2 4 4 1 6 2 1 2 9 3 7 21 5 6 6 6 6 3 3
23 6 5 3 6 2 2 0 6 4 7 4 5 6 4 3 5 4 4 5 7 4 3 9 8 10 7 5 9 12 5 7 9 5 2 3 9 11 4 3 5 6 7 5 5
13 3 1 4 6 2 1 4 5 4 3 7 8 3 5 5 3 3 4 4 6 15 8 6 8 1 4 3 1 6 5 10 4 2 1 4 9 10 6 2 2 7 7 6 5
3 4 1 4 5 0 1 7 4 3 0 1 3 3 4 4 4 3 3 3 4 6 3 5 7 2 1 1 1 3 3 6 2 5 5 7 6 10 1 6 6 6 7 6 2
4 5 4 4 2 1 4 8 5 4 3 4 2 4 7 4 5 4 5 5 2 3 5 3 1 1 1 6 12 1 3 3 2 4 6 2 8 8 8 10 17 9 7 6 6
2 4 4 3 2 1 3 5 3 5 4 6 5 7 6 3 5 5 7 6 4 3 1 3 2 6 8 1 2 1 7 17 6 6 4 1 10 3 8 8 11 9 6 6 5
1 4 3 2 3 3 6 5 3 3 5 3 3 5 1 3 6 5 3 2 6 2 4 1 3 2 5 3 2 3 5 2 1 2 7 8 9 6 5 9 6 9 6 5 5
3 3 6 1 3 2 2 7 4 4 5 6 6 2 4 5 7 5 3 4 5 5 3 5 5 6 5 3 1 1 2 5 4 7 7 12 2 2 1 6 6 4 5 5 6
3 6 5 3 5 2 1 4 7 5 3 4 4 2 4 5 5 3 5 5 5 9 5 3 4 2 5 5 5 5 6 6 14 13 11 10 13 7 6 4 4 2 1 4 5
5 4 1 3 3 5 4 4 6 5 3 6 7 4 1 3 5 4 8 4 5 2 6 5 4 2 5 7 8 9 11 10 14 13 20 16 20 4 1 3 4 5 5 4 4
2 2 4 8 5 6 7 8 9 8 6 5 3 3 3 6 3 6 8 10 12 10 1 3 3 1 5 5 2 9 14 16 8 8 15 14 15 7 1 5 8 5 7 6 3
Wind_Direction
313 315 317 316 318 321 320 320 320 321 320 321 319 320 321 317 311 305 246 226 196 228 184 131 173 180 112 183 162 138 206 239 221 174 241 180 188 180 322 164 224 201 208 313 133
291 292 295 299 310 313 312 312 314 317 320 321 322 317 319 318 310 263 242 230 219 228 177 180 194 156 184 199 185 171 218 233 186 200 222 227 192 183 162 214 229 248 158 86 128
296 285 282 286 294 300 308 309 311 315 317 320 321 317 318 337 307 246 280 237 226 182 186 189 126 158 206 172 193 200 228 231 231 220 201 220 232 188 182 243 207 208 179 150 151
322 290 271 277 284 292 304 314 311 313 315 318 318 316 319 68 271 358 337 136 180 137 165 160 161 178 206 207 207 220 231 205 207 206 169 210 162 208 196 233 202 216 153 165 180
337 303 256 267 278 290 300 312 314 315 313 315 315 312 346 278 254 309 327 68 105 135 178 173 171 169 187 207 203 229 224 216 228 217 218 148 219 220 241 228 188 133 170 190 199
336 336 267 253 270 281 293 300 307 308 309 313 311 310 246 262 247 336 323 312 180 162 174 170 200 213 240 218 192 227 215 237 234 225 211 202 244 151 251 183 227 215 226 212 209
335 338 296 250 260 274 285 293 300 306 304 303 302 294 254 244 249 305 328 276 242 198 180 204 188 182 188 282 221 255 261 281 226 204 229 133 268 226 228 171 227 233 236 224 222
337 330 334 276 268 271 285 292 294 297 297 295 287 279 258 253 253 276 238 282 255 241 226 193 172 211 209 279 345 200 177 239 203 163 223 153 252 239 228 196 241 242 253 241 233
330 322 318 318 282 265 275 289 290 290 291 283 256 210 264 309 268 247 181 223 190 255 262 92 129 181 176 150 326 256 217 216 274 195 136 191 259 247 163 191 248 253 253 250 256
338 320 311 305 324 261 276 302 290 302 311 255 239 358 266 258 231 276 188 157 209 146 162 158 82 187 166 158 222 227 226 245 217 210 181 215 253 271 249 211 241 264 262 257 255
336 325 309 314 320 302 31 344 358 294 76 200 193 242 298 282 288 196 164 130 128 199 188 202 178 216 211 209 222 220 215 231 225 198 169 230 254 241 270 247 249 256 258 251 241
345 334 320 302 323 116 108 197 213 190 291 243 250 244 251 14 310 260 126 160 158 204 140 120 227 228 190 201 228 220 238 254 266 171 187 292 267 229 232 251 227 252 253 244 249
348 342 312 294 135 54 103 339 49 118 275 279 228 253 226 192 238 224 164 172 187 183 204 214 200 178 181 185 216 229 231 234 217 151 204 329 283 224 249 247 252 252 260 280 248
354 343 12 126 105 5 29 299 237 81 324 276 247 287 227 205 250 213 179 182 218 216 166 237 247 192 205 234 197 236 213 191 173 128 248 105 277 276 236 245 238 258 239 258 273
358 18 37 12 132 58 333 292 312 68 316 317 332 293 343 212 338 30 2 97 210 201 150 229 184 190 222 221 181 245 183 189 194 201 126 219 255 265 349 267 256 229 211 284 299
357 357 346 16 42 356 322 352 13 40 254 317 326 350 354 262 335 8 21 38 21 266 248 274 325 187 189 79 188 150 90 65 74 119 200 202 166 265 192 215 206 178 40 3 350
344 352 19 12 354 317 328 103 49 193 334 309 329 358 318 273 245 176 166 228 198 166 240 231 207 207 163 111 60 209 147 150 15 156 232 172 171 252 272 226 191 155 119 87 60
341 16 43 36 328 6 12 120 229 214 244 339 347 304 258 198 246 217 198 223 230 320 73 227 249 172 178 212 180 191 208 157 196 192 238 114 220 251 253 305 221 138 128 110 65
351 347 42 347 333 14 168 234 231 229 306 336 326 330 303 340 231 266 230 243 223 187 218 202 251 67 15 101 111 200 218 151 91 140 87 227 269 297 226 279 109 134 123 119 110
321 327 329 326 327 228 259 259 244 227 258 209 211 320 266 306 349 9 303 226 270 208 106 290 289 17 9 102 80 218 207 85 194 166 215 245 262 237 173 193 184 160 146 134 120
37 9 268 321 283 216 231 234 276 247 230 241 248 256 248 263 197 217 242 280 360 3 139 350 267 21 24 214 187 131 170 124 132 201 194 232 251 214 231 196 169 169 152 115 68
76 349 282 324 4 240 248 206 255 268 218 267 251 249 236 274 242 226 241 235 214 84 14 201 225 261 226 34 354 356 212 195 193 204 239 140 258 314 248 164 149 150 156 96 78
137 246 296 278 241 257 300 280 274 280 238 238 267 260 195 294 287 230 277 17 347 186 173 247 205 308 311 347 11 209 200 197 170 76 198 194 258 359 75 105 135 134 124 88 78
93 327 314 270 157 238 293 274 272 299 277 285 266 282 290 243 221 280 286 346 341 343 334 324 197 208 198 160 101 312 282 204 160 221 215 237 319 319 129 139 162 140 81 107 100
152 232 195 255 294 200 294 305 297 307 287 281 286 15 1 290 320 345 4 321 4 7 339 287 261 185 263 229 193 224 220 220 214 233 222 256 242 231 222 179 157 114 217 140 120
177 175 246 243 147 206 233 232 229 258 200 268 243 351 12 295 294 325 359 349 292 320 12 327 289 347 275 253 216 246 234 219 228 248 250 260 270 260 282 174 184 196 208 172 178
151 140 154 181 176 169 208 210 212 161 253 225 163 288 282 274 210 249 243 248 249 268 201 247 288 289 265 325 182 269 230 209 199 211 226 235 259 189 204 325 288 231 177 153 126